Wind_Speed
7 6 5 4 4 4 5 6 6 6 6 5 5 5 4 3 2 1 2 3 4 5 7 8 9 10 12 13 15 17 19 20 21 22 23 23 24 24 24 24 24 25 25 25 26 26 26 27 27
11 10 9 8 8 8 8 8 8 7 6 4 3 2 1 2 2 3 4 5 6 8 9 11 12 13 15 17 18 20 21 22 23 24 24 24 24 25 25 25 25 25 26 26 27 28 28 29 29
13 11 11 10 10 9 8 8 7 5 4 2 1 1 2 3 4 5 6 8 9 11 12 13 15 16 18 20 21 22 23 24 24 24 25 25 25 26 26 26 27 28 28 28 29 30 31 31 32
11 10 10 9 8 7 6 5 4 2 1 2 3 4 5 6 7 8 9 11 12 13 14 16 17 19 20 21 23 23 24 24 24 25 25 26 27 27 28 29 30 30 31 32 32 33 33 34 35
9 8 7 6 5 4 4 3 3 3 4 5 6 7 8 9 10 11 12 13 14 15 16 18 19 20 21 22 23 23 24 24 24 25 26 27 28 29 30 31 32 33 34 34 35 36 37 38 39
5 4 4 3 3 4 5 6 7 8 8 9 10 10 11 12 12 12 13 14 15 16 17 18 19 20 21 21 22 23 23 24 25 26 27 28 29 30 31 32 34 35 36 37 38 39 40 41 42
3 5 5 6 7 8 9 10 11 11 12 12 12 12 13 13 13 14 14 15 16 16 17 18 19 20 20 21 22 22 23 24 25 26 27 29 30 31 32 34 35 36 37 38 40 41 43 44 45
7 8 10 11 12 12 13 13 14 14 14 13 13 13 13 14 14 14 15 15 15 16 17 18 18 19 20 20 21 22 23 24 25 27 28 29 30 31 33 34 35 36 38 39 41 43 44 46 47
11 12 13 14 15 15 15 15 15 15 15 14 13 13 13 14 14 14 14 15 15 16 16 17 18 19 20 20 21 22 24 25 26 27 28 29 30 31 32 33 35 37 38 40 42 43 45 47 49
13 14 15 15 15 15 15 15 15 15 14 14 13 13 13 14 14 14 14 14 14 15 15 17 18 18 20 21 22 24 25 26 27 28 28 30 31 32 33 34 36 38 39 41 43 44 46 49 51
15 15 15 15 15 14 15 15 15 14 14 14 13 13 13 13 13 13 13 13 13 14 15 16 17 19 21 22 23 25 26 27 29 29 30 31 32 34 35 36 38 39 41 43 45 46 48 50 52
15 14 14 15 15 14 14 14 14 14 14 13 13 13 12 12 12 12 12 12 13 14 15 16 18 20 21 23 24 26 28 29 30 31 32 34 35 36 37 38 40 41 43 45 47 48 50 52 54
14 14 14 14 14 14 13 13 13 14 13 13 13 12 12 12 11 11 12 12 13 14 15 17 18 20 22 24 26 27 29 31 33 34 35 36 37 38 39 40 42 43 45 47 49 50 52 53 56
14 14 14 14 14 14 13 12 12 13 12 12 12 11 11 11 11 11 12 12 13 14 16 17 19 21 23 25 27 28 30 32 34 36 37 38 39 40 42 43 44 45 47 49 51 53 54 56 57
15 15 14 14 14 14 13 12 12 12 11 11 11 11 10 11 11 12 12 13 14 16 17 18 20 21 23 25 27 29 31 33 35 37 38 39 41 42 44 45 46 47 49 51 54 55 57 58 60
16 15 15 15 15 14 13 12 12 12 12 11 11 11 11 12 13 13 14 15 16 18 19 20 22 23 25 26 28 30 32 35 37 38 40 41 42 43 45 46 48 49 51 53 56 58 60 61 62
17 17 17 17 16 15 14 13 14 13 13 13 13 13 13 14 15 15 16 18 19 20 22 23 25 26 27 28 30 32 34 36 38 40 42 43 44 45 47 48 49 51 53 55 58 60 62 64 65
18 18 18 19 18 17 16 15 16 15 14 15 15 15 16 17 17 18 19 21 22 24 25 26 27 28 29 31 32 34 36 38 40 42 43 44 46 47 48 50 51 53 55 57 60 62 64 66 68
21 20 20 21 21 20 18 17 18 19 17 17 18 18 19 20 21 21 22 24 25 27 28 29 30 31 32 33 35 36 38 40 42 44 45 47 48 49 50 51 53 55 57 59 61 64 66 69 70
22 22 22 23 24 23 22 20 21 21 20 20 20 21 22 22 23 24 25 27 28 30 31 32 34 35 36 36 38 39 41 42 44 46 47 49 50 51 52 53 55 56 58 61 63 66 68 71 73
24 25 25 25 26 26 26 22 22 24 23 22 23 23 24 25 26 27 28 29 31 32 34 35 36 37 38 39 40 41 43 45 47 48 49 51 52 53 54 55 56 58 60 63 65 67 70 72 75
25 26 27 28 28 28 29 27 19 26 24 23 24 25 26 27 28 29 31 32 34 35 37 38 39 40 41 42 43 44 46 47 49 50 52 53 54 55 56 57 58 60 62 65 67 70 72 74 77
27 28 29 29 30 30 29 32 22 25 25 25 27 28 28 30 30 32 33 35 36 38 39 41 42 42 44 45 46 47 48 49 51 52 54 54 56 57 57 58 60 62 64 66 69 72 74 76 78
29 30 31 31 32 31 30 33 29 25 27 28 29 30 31 32 33 34 36 37 39 41 42 43 44 45 46 47 48 49 50 52 53 54 56 56 57 58 59 60 62 64 66 68 71 73 75 77 79
30 32 34 35 33 33 32 33 29 27 28 30 31 32 34 35 36 37 39 40 42 43 44 46 47 47 48 49 50 51 52 53 54 56 57 57 58 59 60 62 63 65 67 70 72 74 76 78 79
30 32 35 38 38 36 34 34 29 28 29 31 33 34 36 37 39 40 42 44 45 46 47 48 49 50 50 51 52 53 54 55 56 58 59 59 60 61 62 63 64 66 68 71 73 75 77 78 79
32 32 34 39 41 40 37 35 31 28 27 29 32 35 37 40 42 44 46 48 49 49 49 51 51 52 53 53 54 55 55 57 58 59 60 60 61 62 64 65 66 67 70 72 74 75 77 78 78
34 35 36 38 43 44 41 36 32 30 30 30 32 36 39 42 45 48 50 52 52 52 52 53 53 53 54 55 56 56 57 59 60 60 60 61 62 64 65 67 68 69 71 73 74 75 75 77 77
34 35 37 39 42 45 47 41 35 36 34 35 36 39 43 46 48 50 53 54 55 54 54 54 54 55 56 57 57 58 59 60 61 61 61 63 64 65 66 67 69 69 71 73 74 74 74 75 75
36 37 38 40 43 45 49 47 38 38 39 40 41 42 44 47 50 52 53 54 55 55 55 55 55 56 57 58 59 59 60 61 62 62 63 65 66 67 68 68 69 70 70 72 73 73 73 74 73
Wind_Direction
78 79 86 92 96 105 117 124 126 128 128 127 122 119 119 112 100 59 23 3 347 333 325 319 317 315 313 311 309 307 306 304 303 303 302 301 300 299 299 298 297 296 296 295 294 294 293 292 290
83 83 85 88 93 102 107 112 117 122 123 118 108 93 61 26 15 355 335 332 326 321 317 315 314 312 310 308 306 305 305 304 303 303 302 302 301 300 300 299 298 296 294 293 293 292 291 290 290
82 82 87 88 91 96 99 102 106 110 111 101 69 355 331 327 329 324 319 318 316 314 312 312 311 309 308 307 306 305 305 304 305 305 305 304 304 303 301 300 298 296 295 293 292 291 289 289 288
79 79 81 82 83 84 84 83 81 67 40 348 326 318 312 311 313 313 311 311 310 310 309 309 309 308 307 307 307 307 307 307 308 308 308 308 306 305 303 301 299 297 295 294 292 290 289 288 287
75 74 72 70 65 58 43 21 354 332 319 311 309 308 305 303 305 306 306 307 308 308 308 308 308 308 308 308 309 310 311 311 312 312 311 310 309 307 304 302 300 298 296 294 292 290 288 288 287
56 41 32 17 1 342 328 318 313 307 303 301 300 300 298 298 300 301 303 305 306 307 308 308 308 309 310 311 312 313 314 314 315 315 314 313 311 309 306 304 301 299 297 295 293 291 289 288 287
350 338 328 322 317 311 306 304 303 301 298 296 296 297 295 296 298 301 303 305 307 308 309 310 310 311 313 314 315 316 317 317 317 317 316 315 314 312 310 307 304 302 299 297 295 293 291 289 288
314 312 310 309 306 303 301 300 300 299 296 295 295 295 294 295 299 301 304 306 308 310 310 311 313 314 316 317 318 318 319 319 319 318 318 317 316 315 313 311 309 306 304 301 299 296 294 292 290
306 303 303 302 300 299 298 298 298 297 294 294 294 294 294 296 299 302 305 307 309 311 313 315 316 317 319 320 320 320 321 320 320 319 319 319 319 319 318 316 314 312 309 306 303 300 298 295 293
304 302 302 301 300 299 297 297 296 294 293 292 293 294 294 296 299 303 306 308 312 314 317 319 320 321 321 321 321 321 321 320 320 319 319 320 320 320 320 320 318 316 314 311 308 305 302 299 297
305 303 303 303 302 299 296 295 295 293 292 293 294 294 293 295 299 302 306 311 316 319 321 323 323 323 322 322 322 321 320 319 318 317 317 318 319 319 319 319 319 318 317 315 313 310 307 304 301
308 306 305 303 301 298 295 293 293 292 292 293 293 293 293 295 299 303 309 315 319 323 325 326 324 324 324 323 323 322 321 319 318 317 316 317 317 316 317 317 317 318 318 317 316 314 311 308 305
306 305 303 300 298 295 293 291 290 290 292 291 291 291 293 297 301 306 311 316 321 324 326 327 326 326 326 326 326 324 322 320 318 317 316 316 316 315 315 316 316 317 318 318 318 316 313 310 307
305 304 302 298 294 293 291 288 286 286 288 287 288 289 291 295 302 307 311 315 318 321 324 325 326 327 327 327 326 325 324 322 320 318 317 316 316 315 315 315 316 316 317 318 318 317 315 312 310
304 303 300 297 293 290 289 287 282 284 283 283 284 287 289 294 299 303 308 311 314 316 319 322 324 325 326 326 326 326 326 324 322 321 319 318 317 316 316 316 316 316 316 317 318 318 317 315 313
302 300 297 294 290 288 286 285 281 280 281 281 282 286 289 293 297 301 304 306 308 310 313 316 319 322 323 324 325 326 326 325 325 323 322 320 319 318 317 316 316 316 317 317 318 319 318 317 315
300 298 294 291 286 284 283 282 281 278 278 280 282 285 288 291 293 297 300 302 303 306 308 311 314 317 320 322 323 324 325 326 325 324 323 321 320 319 318 317 317 316 317 318 318 319 319 318 317
295 294 292 289 286 282 279 277 279 279 278 279 281 284 286 288 290 294 296 298 299 302 305 307 310 313 315 318 320 321 322 324 325 324 323 322 321 320 318 318 317 317 317 318 319 320 320 320 319
292 291 289 287 286 283 280 277 277 280 279 279 280 283 285 286 289 291 293 295 297 300 303 305 307 309 312 314 316 317 318 320 322 323 323 322 321 320 318 318 318 318 318 319 320 321 322 321 321
292 290 289 287 286 284 282 280 277 278 279 279 281 283 284 286 288 289 291 293 296 298 301 303 305 307 309 311 313 315 316 317 319 321 321 321 320 320 319 318 318 319 320 320 321 322 323 323 322
293 293 290 288 286 285 284 281 278 278 279 281 283 283 284 286 287 289 291 292 294 296 299 302 304 305 307 309 311 313 315 316 317 319 319 320 320 319 319 319 319 320 321 322 323 324 324 324 323
293 292 292 290 288 288 288 286 278 281 284 284 283 282 283 285 286 288 289 291 293 295 298 300 302 304 306 308 310 311 313 315 316 318 318 318 319 319 319 319 320 320 321 323 324 325 325 325 325
294 293 293 292 291 291 291 289 287 283 284 282 281 282 283 284 286 287 289 290 292 294 296 298 300 302 304 306 308 310 311 313 315 316 317 317 318 318 318 319 319 321 322 324 325 326 326 326 325
294 295 295 294 294 294 293 291 294 289 284 282 282 283 282 283 285 286 288 290 292 293 295 296 298 300 301 304 306 308 310 312 313 315 316 316 317 317 318 318 319 321 322 324 326 326 326 326 326
296 297 298 296 296 297 296 295 301 299 290 285 282 281 281 283 284 285 286 288 290 291 293 295 297 298 299 302 304 306 308 310 312 313 315 315 316 316 317 318 319 321 323 324 325 326 326 326 325
296 297 299 299 299 298 299 301 307 305 296 289 285 282 282 282 282 283 284 286 288 289 291 293 295 297 298 300 302 305 307 309 311 312 314 314 315 315 316 318 320 321 323 324 325 325 325 325 325
296 296 297 298 298 299 300 303 306 308 302 295 289 284 282 281 280 281 282 285 286 288 290 292 294 295 297 298 300 303 306 308 309 311 312 313 314 315 316 318 320 321 322 323 324 324 324 324 325
295 297 298 297 298 299 300 303 311 312 306 297 289 284 281 279 279 281 283 284 286 288 290 292 293 294 295 297 299 302 304 306 308 309 311 312 313 314 315 317 319 320 321 322 324 324 323 324 325
293 294 294 295 296 298 299 302 312 307 302 295 288 284 282 281 281 282 284 286 288 289 290 291 292 293 294 296 299 301 303 305 306 308 310 311 312 314 315 317 318 320 320 322 323 323 323 323 325
291 291 292 294 294 296 297 300 308 303 299 294 291 288 287 286 286 287 288 289 289 290 290 291 292 293 294 295 297 300 302 303 305 307 309 311 312 313 315 317 318 319 320 321 322 322 322 323 325
Height
5868 5868 5869 5870 5871 5871 5871 5872 5872 5872 5873 5874 5874 5874 5875 5875 5876 5878 5875 5873 5873 5872 5872 5871 5871 5870 5870 5869 5868 5867 5866 5865 5864 5863 5862 5860 5859 5858 5857 5856 5855 5854 5853 5852 5851 5850 5850 5849 5849
5870 5870 5872 5872 5872 5872 5873 5873 5874 5874 5875 5875 5875 5875 5875 5875 5875 5874 5873 5872 5872 5871 5871 5870 5869 5868 5867 5867 5865 5864 5863 5861 5860 5859 5857 5856 5855 5853 5852 5851 5850 5849 5848 5847 5846 5845 5844 5843 5843
5872 5873 5874 5874 5874 5875 5875 5875 5876 5876 5876 5876 5876 5875 5875 5875 5874 5873 5872 5871 5870 5870 5869 5868 5867 5866 5865 5863 5862 5860 5859 5857 5856 5854 5852 5851 5850 5848 5847 5846 5845 5844 5843 5842 5841 5839 5838 5838 5837
5875 5876 5876 5877 5876 5876 5876 5877 5877 5876 5876 5876 5876 5876 5875 5874 5873 5872 5871 5869 5869 5868 5866 5865 5864 5863 5861 5860 5858 5856 5855 5853 5851 5849 5848 5846 5844 5843 5842 5840 5839 5838 5837 5835 5834 5833 5832 5831 5830
5877 5878 5878 5878 5878 5878 5877 5877 5877 5876 5876 5876 5875 5874 5873 5872 5871 5870 5869 5867 5866 5865 5864 5863 5861 5860 5858 5856 5854 5852 5850 5848 5846 5844 5843 5841 5839 5837 5836 5834 5832 5831 5830 5828 5827 5826 5824 5823 5822
5879 5879 5879 5878 5878 5878 5877 5877 5876 5876 5875 5874 5873 5872 5871 5870 5869 5868 5867 5865 5864 5863 5861 5860 5858 5856 5855 5853 5850 5848 5846 5844 5842 5840 5838 5835 5833 5831 5829 5827 5825 5823 5822 5820 5818 5817 5815 5814 5812
5880 5879 5879 5878 5878 5877 5876 5875 5875 5874 5873 5872 5871 5870 5869 5868 5866 5865 5864 5863 5861 5860 5858 5857 5855 5853 5851 5849 5847 5845 5842 5840 5838 5835 5833 5830 5828 5825 5823 5820 5818 5816 5813 5811 5809 5807 5805 5803 5801
5879 5879 5878 5877 5876 5875 5874 5873 5872 5871 5870 5869 5868 5867 5866 5865 5864 5862 5861 5860 5859 5857 5855 5854 5852 5850 5848 5846 5843 5841 5838 5836 5833 5831 5828 5825 5822 5819 5816 5813 5810 5807 5804 5802 5799 5796 5794 5791 5789
5878 5878 5876 5875 5874 5873 5872 5870 5869 5869 5867 5866 5865 5865 5863 5862 5860 5859 5858 5857 5856 5854 5852 5851 5849 5847 5845 5842 5840 5837 5834 5832 5829 5826 5823 5819 5816 5813 5809 5806 5802 5799 5795 5792 5789 5785 5782 5779 5776
5876 5875 5874 5873 5871 5870 5869 5868 5867 5866 5865 5864 5863 5862 5860 5859 5857 5856 5855 5854 5853 5851 5850 5848 5846 5844 5841 5839 5836 5833 5830 5827 5824 5821 5818 5814 5810 5806 5803 5799 5794 5790 5787 5782 5778 5774 5770 5767 5762
5874 5872 5871 5869 5868 5867 5866 5865 5864 5863 5862 5861 5860 5859 5857 5856 5854 5853 5852 5851 5850 5848 5847 5845 5842 5840 5838 5835 5832 5829 5826 5823 5819 5816 5812 5808 5804 5800 5796 5791 5787 5782 5777 5773 5768 5763 5758 5754 5749
5871 5869 5868 5867 5865 5865 5864 5863 5862 5861 5860 5858 5857 5856 5854 5853 5852 5851 5850 5848 5847 5845 5844 5842 5839 5837 5834 5831 5828 5825 5821 5818 5814 5810 5806 5802 5797 5793 5788 5783 5778 5773 5768 5763 5757 5752 5746 5741 5735
5869 5867 5866 5864 5863 5862 5862 5861 5859 5858 5857 5856 5854 5853 5852 5851 5849 5848 5847 5845 5844 5842 5841 5839 5836 5833 5830 5827 5824 5820 5816 5812 5808 5804 5799 5795 5790 5785 5780 5775 5770 5764 5759 5753 5747 5741 5735 5729 5723
5867 5865 5864 5862 5861 5860 5859 5858 5857 5856 5855 5853 5852 5851 5850 5848 5847 5846 5844 5843 5841 5839 5837 5835 5832 5829 5826 5823 5819 5815 5811 5807 5802 5797 5792 5787 5782 5777 5772 5766 5761 5755 5749 5743 5737 5730 5724 5717 5710
5864 5863 5862 5860 5859 5858 5857 5856 5854 5853 5852 5851 5850 5849 5847 5846 5844 5843 5841 5840 5838 5836 5834 5831 5828 5825 5822 5818 5814 5810 5805 5801 5796 5791 5785 5780 5774 5768 5763 5757 5751 5745 5739 5733 5726 5719 5711 5704 5697
5862 5861 5860 5858 5857 5855 5855 5855 5852 5850 5849 5848 5847 5846 5845 5843 5842 5840 5838 5837 5835 5832 5830 5827 5824 5821 5817 5813 5808 5804 5799 5795 5789 5784 5778 5772 5766 5760 5754 5748 5741 5735 5728 5721 5714 5706 5699 5691 5683
5860 5858 5857 5856 5854 5852 5851 5851 5849 5847 5846 5845 5844 5843 5841 5840 5838 5836 5835 5833 5831 5828 5825 5822 5819 5815 5812 5807 5803 5798 5793 5788 5782 5777 5770 5764 5758 5752 5745 5738 5731 5724 5717 5710 5702 5694 5686 5677 5668
5857 5855 5853 5852 5850 5849 5848 5848 5846 5844 5843 5842 5841 5839 5838 5836 5835 5833 5831 5828 5826 5824 5821 5817 5814 5810 5805 5801 5796 5791 5786 5781 5775 5769 5763 5756 5749 5743 5736 5728 5721 5714 5706 5698 5689 5681 5672 5662 5653
5853 5851 5850 5848 5846 5845 5844 5844 5843 5841 5840 5839 5837 5836 5834 5832 5830 5828 5826 5824 5821 5818 5815 5811 5807 5803 5798 5794 5789 5784 5779 5773 5767 5761 5754 5747 5740 5733 5726 5718 5710 5702 5694 5685 5677 5667 5657 5647 5637
5849 5847 5846 5844 5841 5840 5840 5840 5839 5837 5836 5835 5833 5831 5830 5828 5826 5823 5821 5818 5815 5812 5809 5805 5800 5796 5791 5787 5782 5777 5771 5765 5759 5752 5745 5738 5730 5723 5715 5707 5699 5690 5682 5672 5663 5653 5643 5631 5619
5845 5842 5841 5839 5837 5835 5835 5837 5835 5833 5831 5830 5829 5826 5824 5822 5820 5817 5815 5812 5809 5805 5802 5798 5793 5788 5783 5779 5774 5768 5762 5756 5749 5743 5735 5728 5720 5712 5704 5696 5687 5678 5669 5659 5649 5638 5627 5616 5602
5840 5838 5836 5833 5832 5831 5830 5829 5833 5828 5827 5825 5823 5821 5818 5816 5813 5811 5808 5805 5802 5798 5794 5790 5785 5780 5775 5770 5765 5759 5753 5747 5740 5733 5726 5718 5710 5701 5693 5684 5675 5666 5656 5646 5635 5623 5611 5599 5585
5835 5833 5831 5828 5826 5826 5825 5821 5828 5825 5822 5820 5817 5814 5812 5809 5806 5804 5800 5797 5794 5790 5786 5781 5777 5772 5766 5761 5756 5750 5744 5737 5730 5723 5715 5707 5699 5690 5682 5673 5663 5653 5643 5632 5620 5608 5595 5582 5568
5830 5828 5825 5823 5821 5821 5819 5816 5819 5819 5816 5813 5810 5808 5805 5802 5799 5796 5792 5789 5785 5781 5777 5772 5768 5763 5757 5752 5746 5740 5734 5727 5720 5712 5704 5696 5688 5679 5670 5661 5651 5641 5630 5618 5606 5593 5580 5566 5552
5826 5823 5819 5816 5815 5815 5812 5810 5813 5812 5808 5805 5803 5800 5796 5794 5791 5787 5783 5780 5776 5771 5767 5762 5758 5753 5747 5742 5736 5729 5723 5716 5708 5701 5693 5684 5676 5667 5658 5649 5639 5628 5617 5605 5592 5579 5566 5551 5536
5821 5818 5814 5809 5807 5806 5805 5804 5807 5804 5800 5796 5793 5790 5787 5784 5780 5777 5773 5769 5765 5761 5757 5752 5747 5742 5736 5730 5725 5718 5712 5704 5697 5689 5681 5673 5664 5655 5646 5637 5626 5615 5603 5591 5579 5566 5552 5537 5522
5815 5812 5809 5804 5799 5798 5798 5798 5800 5797 5792 5788 5784 5780 5777 5773 5769 5765 5762 5758 5754 5750 5746 5741 5735 5730 5725 5719 5713 5707 5700 5693 5685 5678 5670 5661 5652 5643 5634 5624 5613 5602 5590 5578 5566 5553 5538 5524 5509
5809 5806 5803 5797 5792 5788 5788 5790 5791 5787 5783 5780 5775 5770 5765 5762 5757 5753 5749 5745 5742 5738 5734 5729 5723 5718 5713 5707 5701 5695 5688 5681 5673 5666 5657 5649 5640 5631 5621 5610 5600 5589 5577 5565 5553 5539 5525 5511 5496
5803 5800 5795 5790 5787 5781 5776 5782 5784 5777 5772 5768 5764 5759 5755 5751 5746 5742 5738 5734 5730 5726 5721 5716 5711 5706 5700 5694 5689 5683 5676 5668 5661 5653 5645 5636 5627 5618 5608 5598 5587 5576 5564 5552 5540 5527 5513 5499 5484
5795 5792 5788 5785 5781 5775 5768 5771 5774 5767 5761 5756 5753 5749 5744 5740 5736 5732 5727 5723 5718 5713 5709 5704 5699 5693 5688 5682 5676 5670 5663 5655 5648 5640 5632 5624 5615 5605 5595 5585 5574 5563 5551 5539 5527 5514 5501 5487 5472